| time (UTC) | temp F | wind direction | speed MPH | gust MPH | rain 1hr in | rain 24hr in | rain mn in | humidity % | barometer mb |
| 20260905100335 | 81 | 225 | 4.0 | 7.0 | 0.00 | 0.00 | 0.00 | 89 | 1012.3 |
| 20260905095349 | 81 | 178 | 4.0 | 8.0 | 0.00 | 0.00 | 0.00 | 89 | 1012.4 |
| 20260905094328 | 81 | 219 | 4.0 | 7.0 | 0.00 | 0.00 | 0.00 | 88 | 1012.4 |
| 20260905093325 | 81 | 209 | 3.0 | 8.0 | 0.00 | 0.00 | 0.00 | 88 | 1012.4 |
| 20260905092319 | 81 | 215 | 3.0 | 9.0 | 0.00 | 0.00 | 0.00 | 88 | 1012.4 |
| 20260905091320 | 81 | 229 | 2.0 | 6.0 | 0.00 | 0.00 | 0.00 | 88 | 1012.4 |
| 20260905090314 | 82 | 222 | 3.0 | 7.0 | 0.00 | 0.00 | 0.00 | 88 | 1012.5 |
| 20260905085310 | 82 | 186 | 3.0 | 6.0 | 0.00 | 0.00 | 0.00 | 88 | 1012.5 |
| 20260905084309 | 82 | 214 | 2.0 | 5.0 | 0.00 | 0.00 | 0.00 | 88 | 1012.6 |
| 20260905083321 | 81 | 227 | 3.0 | 7.0 | 0.00 | 0.00 | 0.00 | 88 | 1012.6 |
| 20260905082343 | 81 | 186 | 3.0 | 7.0 | 0.00 | 0.00 | 0.00 | 88 | 1012.6 |
| 20260905081320 | 81 | 217 | 3.0 | 7.0 | 0.00 | 0.00 | 0.00 | 87 | 1012.8 |
| 20260905080313 | 81 | 248 | 4.0 | 7.0 | 0.00 | 0.00 | 0.00 | 87 | 1012.9 |
| 20260905075312 | 81 | 239 | 3.0 | 5.0 | 0.00 | 0.00 | 0.00 | 87 | 1013.0 |
| 20260905074311 | 80 | 217 | 3.0 | 6.0 | 0.00 | 0.00 | 0.00 | 86 | 1013.2 |
| 20260905073324 | 80 | 159 | 3.0 | 6.0 | 0.00 | 0.00 | 0.00 | 84 | 1013.2 |
| 20260905072324 | 80 | 236 | 3.0 | 4.0 | 0.00 | 0.00 | 0.00 | 84 | 1013.3 |
| 20260905071335 | 80 | 180 | 2.0 | 4.0 | 0.00 | 0.00 | 0.00 | 83 | 1013.4 |
| 20260905070313 | 80 | 202 | 2.0 | 6.0 | 0.00 | 0.00 | 0.00 | 83 | 1013.6 |
| 20260905065324 | 80 | 160 | 2.0 | 4.0 | 0.00 | 0.00 | 0.00 | 82 | 1013.8 |
| 20260905064327 | 80 | 180 | 2.0 | 4.0 | 0.00 | 0.00 | 0.00 | 82 | 1013.9 |
| 20260905063319 | 80 | 154 | 2.0 | 4.0 | 0.00 | 0.00 | 0.00 | 81 | 1013.9 |
| 20260905062319 | 80 | 160 | 2.0 | 5.0 | 0.00 | 0.00 | 0.00 | 80 | 1014.1 |
| 20260905061308 | 80 | 100 | 3.0 | 5.0 | 0.00 | 0.00 | 0.00 | 80 | 1014.3 |
| 20260905060327 | 80 | 114 | 2.0 | 5.0 | 0.00 | 0.00 | 0.00 | 79 | 1014.4 |
| 20260905055320 | 80 | 167 | 3.0 | 5.0 | 0.00 | 0.00 | 0.00 | 79 | 1014.5 |
| 20260905054341 | 80 | 192 | 3.0 | 6.0 | 0.00 | 0.00 | 0.00 | 79 | 1014.7 |
| 20260905053313 | 80 | 153 | 3.0 | 5.0 | 0.00 | 0.00 | 0.00 | 78 | 1014.8 |
| 20260905052331 | 80 | 150 | 3.0 | 5.0 | 0.00 | 0.00 | 0.00 | 78 | 1014.8 |
| 20260905051322 | 81 | 160 | 3.0 | 5.0 | 0.00 | 0.00 | 0.00 | 77 | 1015.0 |
| 20260905050315 | 81 | 143 | 3.0 | 7.0 | 0.00 | 0.00 | 0.00 | 77 | 1015.1 |
| 20260905045314 | 81 | 107 | 2.0 | 5.0 | 0.00 | 0.00 | 0.00 | 77 | 1015.5 |
| 20260905044310 | 81 | 128 | 3.0 | 6.0 | 0.00 | 0.00 | 0.00 | 77 | 1015.5 |
| 20260905043327 | 82 | 63 | 2.0 | 7.0 | 0.00 | 0.00 | 0.00 | 76 | 1015.8 |
| 20260905042347 | 82 | 149 | 3.0 | 7.0 | 0.00 | 0.00 | 0.00 | 75 | 1015.9 |
| 20260905041317 | 82 | 122 | 2.0 | 8.0 | 0.00 | 0.00 | 0.00 | 75 | 1016.0 |
| 20260905040335 | 83 | 96 | 4.0 | 12.0 | 0.00 | 0.00 | 0.00 | 74 | 1016.1 |
| 20260905035309 | 84 | 97 | 6.0 | 12.0 | 0.00 | 0.00 | 0.00 | 73 | 1016.6 |
| 20260905034323 | 84 | 81 | 7.0 | 19.0 | 0.00 | 0.00 | 0.00 | 74 | 1016.6 |
| 20260905033324 | 85 | 97 | 7.0 | 24.0 | 0.00 | 0.00 | 0.00 | 76 | 1016.6 |
| 20260905032340 | 86 | 113 | 5.0 | 14.0 | 0.00 | 0.00 | 0.00 | 80 | 1016.4 |
| 20260905031319 | 87 | 53 | 8.0 | 18.0 | 0.00 | 0.00 | 0.00 | 79 | 1016.3 |
| 20260905030313 | 87 | 243 | 2.0 | 7.0 | 0.00 | 0.00 | 0.00 | 79 | 1015.4 |
| 20260905025309 | 87 | 153 | 3.0 | 8.0 | 0.00 | 0.00 | 0.00 | 78 | 1015.0 |
| 20260905024312 | 87 | 188 | 4.0 | 7.0 | 0.00 | 0.00 | 0.00 | 77 | 1015.2 |
| 20260905023328 | 87 | 140 | 4.0 | 10.0 | 0.00 | 0.00 | 0.00 | 76 | 1015.3 |
| 20260905022331 | 88 | 145 | 3.0 | 8.0 | 0.00 | 0.00 | 0.00 | 75 | 1015.1 |
| 20260905021327 | 88 | 148 | 5.0 | 8.0 | 0.00 | 0.00 | 0.00 | 73 | 1015.2 |
| 20260905020325 | 88 | 146 | 3.0 | 6.0 | 0.00 | 0.00 | 0.00 | 72 | 1015.2 |
| 20260905015313 | 89 | 155 | 2.0 | 6.0 | 0.00 | 0.00 | 0.00 | 71 | 1015.3 |
| 20260905014308 | 89 | 161 | 3.0 | 6.0 | 0.00 | 0.00 | 0.00 | 71 | 1015.1 |
| 20260905013331 | 89 | 129 | 2.0 | 7.0 | 0.00 | 0.00 | 0.00 | 71 | 1015.0 |
| 20260905012346 | 89 | 5 | 3.0 | 6.0 | 0.00 | 0.00 | 0.00 | 71 | 1014.8 |
| 20260905011326 | 89 | 102 | 2.0 | 6.0 | 0.00 | 0.00 | 0.00 | 71 | 1014.5 |
| 20260905010322 | 89 | 114 | 3.0 | 7.0 | 0.00 | 0.00 | 0.00 | 71 | 1014.1 |
| 20260905005320 | 90 | 146 | 3.0 | 5.0 | 0.00 | 0.00 | 0.00 | 71 | 1014.1 |
| 20260905004321 | 90 | 133 | 2.0 | 6.0 | 0.00 | 0.00 | 0.00 | 71 | 1014.2 |
| 20260905003318 | 90 | 178 | 3.0 | 5.0 | 0.00 | 0.00 | 0.00 | 71 | 1014.3 |
| 20260905002312 | 91 | 197 | 3.0 | 7.0 | 0.00 | 0.00 | 0.00 | 71 | 1014.1 |
| 20260905001309 | 91 | 164 | 3.0 | 6.0 | 0.00 | 0.00 | 0.00 | 70 | 1014.3 |
| 20260905000333 | 91 | 211 | 3.0 | 4.0 | 0.00 | 0.00 | 0.00 | 70 | 1014.3 |
| 20260904235327 | 92 | 147 | 2.0 | 4.0 | 0.00 | 0.00 | 0.00 | 69 | 1014.1 |
| 20260904234330 | 92 | 202 | 2.0 | 5.0 | 0.00 | 0.00 | 0.00 | 68 | 1014.3 |
| 20260904233323 | 93 | 221 | 2.0 | 3.0 | 0.00 | 0.00 | 0.00 | 68 | 1014.2 |
| 20260904232319 | 93 | 171 | 2.0 | 4.0 | 0.00 | 0.00 | 0.00 | 67 | 1013.9 |
| 20260904231322 | 94 | 125 | 3.0 | 5.0 | 0.00 | 0.00 | 0.00 | 66 | 1013.8 |
| 20260904230322 | 94 | 217 | 3.0 | 7.0 | 0.00 | 0.00 | 0.00 | 65 | 1013.9 |
| 20260904225346 | 95 | 202 | 2.0 | 8.0 | 0.00 | 0.00 | 0.00 | 64 | 1014.0 |
| 20260904224341 | 95 | 159 | 3.0 | 8.0 | 0.00 | 0.00 | 0.00 | 63 | 1013.9 |
| 20260904223323 | 95 | 213 | 2.0 | 6.0 | 0.00 | 0.00 | 0.00 | 63 | 1014.0 |
| 20260904222315 | 96 | 177 | 3.0 | 8.0 | 0.00 | 0.00 | 0.00 | 62 | 1014.0 |
| 20260904221309 | 96 | 196 | 3.0 | 7.0 | 0.00 | 0.00 | 0.00 | 62 | 1014.1 |
| 20260904220332 | 96 | 240 | 5.0 | 9.0 | 0.00 | 0.00 | 0.00 | 61 | 1014.1 |
| 20260904215313 | 97 | 167 | 4.0 | 9.0 | 0.00 | 0.00 | 0.00 | 60 | 1014.1 |
| 20260904214353 | 99 | 206 | 3.0 | 8.0 | 0.00 | 0.00 | 0.00 | 60 | 1014.1 |
| 20260904213326 | 100 | 227 | 4.0 | 7.0 | 0.00 | 0.00 | 0.00 | 59 | 1014.1 |
| 20260904212322 | 100 | 148 | 4.0 | 9.0 | 0.00 | 0.00 | 0.00 | 58 | 1014.1 |
| 20260904211324 | 101 | 145 | 4.0 | 10.0 | 0.00 | 0.00 | 0.00 | 58 | 1013.8 |
| 20260904210320 | 101 | 183 | 5.0 | 8.0 | 0.00 | 0.00 | 0.00 | 58 | 1013.6 |
| 20260904205311 | 101 | 171 | 4.0 | 8.0 | 0.00 | 0.00 | 0.00 | 58 | 1013.6 |
| 20260904204309 | 100 | 207 | 5.0 | 9.0 | 0.00 | 0.00 | 0.00 | 59 | 1013.9 |
| 20260904203320 | 100 | 148 | 4.0 | 12.0 | 0.00 | 0.00 | 0.00 | 58 | 1014.1 |
| 20260904202317 | 100 | 63 | 4.0 | 8.0 | 0.00 | 0.00 | 0.00 | 59 | 1014.3 |
| 20260904201312 | 100 | 164 | 4.0 | 9.0 | 0.00 | 0.00 | 0.00 | 60 | 1014.4 |
| 20260904200331 | 100 | 196 | 5.0 | 10.0 | 0.00 | 0.00 | 0.00 | 59 | 1014.6 |
| 20260904195324 | 101 | 171 | 5.0 | 9.0 | 0.00 | 0.00 | 0.00 | 57 | 1014.8 |
| 20260904194326 | 101 | 207 | 6.0 | 9.0 | 0.00 | 0.00 | 0.00 | 59 | 1014.9 |
| 20260904193316 | 100 | 324 | 3.0 | 10.0 | 0.00 | 0.00 | 0.00 | 59 | 1015.2 |
| 20260904192335 | 99 | 103 | 3.0 | 8.0 | 0.00 | 0.00 | 0.00 | 62 | 1015.5 |
| 20260904191309 | 99 | 230 | 3.0 | 10.0 | 0.00 | 0.00 | 0.00 | 60 | 1015.6 |
| 20260904190330 | 99 | 257 | 3.0 | 10.0 | 0.00 | 0.00 | 0.00 | 60 | 1015.6 |
| 20260904185320 | 99 | 178 | 4.0 | 7.0 | 0.00 | 0.00 | 0.00 | 59 | 1015.9 |
| 20260904184316 | 99 | 234 | 5.0 | 8.0 | 0.00 | 0.00 | 0.00 | 61 | 1016.0 |
| 20260904183313 | 99 | 285 | 5.0 | 8.0 | 0.00 | 0.00 | 0.00 | 61 | 1016.2 |
| 20260904182325 | 99 | 225 | 3.0 | 8.0 | 0.00 | 0.00 | 0.00 | 59 | 1016.3 |
| 20260904181329 | 100 | 199 | 5.0 | 8.0 | 0.00 | 0.00 | 0.00 | 59 | 1016.4 |
| 20260904180318 | 100 | 86 | 3.0 | 6.0 | 0.00 | 0.00 | 0.00 | 61 | 1016.5 |
| 20260904175334 | 99 | 108 | 4.0 | 7.0 | 0.00 | 0.00 | 0.00 | 60 | 1016.7 |
| 20260904174325 | 98 | 169 | 3.0 | 8.0 | 0.00 | 0.00 | 0.00 | 62 | 1016.8 |
| 20260904173318 | 97 | 158 | 5.0 | 11.0 | 0.00 | 0.00 | 0.00 | 62 | 1016.9 |
| 20260904172343 | 97 | 232 | 5.0 | 7.0 | 0.00 | 0.00 | 0.00 | 61 | 1017.0 |
| 20260904171346 | 97 | 267 | 3.0 | 10.0 | 0.00 | 0.00 | 0.00 | 63 | 1017.1 |
| 20260904170319 | 97 | 185 | 4.0 | 8.0 | 0.00 | 0.00 | 0.00 | 62 | 1017.2 |
| 20260904165316 | 97 | 246 | 4.0 | 8.0 | 0.00 | 0.00 | 0.00 | 64 | 1017.2 |
| 20260904164352 | 96 | 261 | 3.0 | 8.0 | 0.00 | 0.00 | 0.00 | 64 | 1017.2 |
| 20260904163324 | 96 | 111 | 3.0 | 7.0 | 0.00 | 0.00 | 0.00 | 63 | 1017.3 |
| 20260904162319 | 96 | 197 | 4.0 | 8.0 | 0.00 | 0.00 | 0.00 | 63 | 1017.4 |
| 20260904161321 | 95 | 158 | 6.0 | 11.0 | 0.00 | 0.00 | 0.00 | 65 | 1017.4 |
| 20260904160315 | 95 | 219 | 6.0 | 9.0 | 0.00 | 0.00 | 0.00 | 66 | 1017.3 |
| 20260904155316 | 95 | 181 | 5.0 | 9.0 | 0.00 | 0.00 | 0.00 | 66 | 1017.5 |
| 20260904154323 | 94 | 175 | 5.0 | 10.0 | 0.00 | 0.00 | 0.00 | 68 | 1017.6 |
| 20260904153319 | 93 | 254 | 3.0 | 10.0 | 0.00 | 0.00 | 0.00 | 70 | 1017.7 |
| 20260904152314 | 93 | 186 | 4.0 | 9.0 | 0.00 | 0.00 | 0.00 | 70 | 1017.9 |
| 20260904151334 | 92 | 186 | 3.0 | 10.0 | 0.00 | 0.00 | 0.00 | 70 | 1018.0 |
| 20260904150327 | 92 | 190 | 4.0 | 9.0 | 0.00 | 0.00 | 0.00 | 71 | 1018.1 |
| 20260904145318 | 92 | 63 | 4.0 | 9.0 | 0.00 | 0.00 | 0.00 | 71 | 1018.1 |
| 20260904144316 | 91 | 209 | 3.0 | 5.0 | 0.00 | 0.00 | 0.00 | 73 | 1018.1 |
| 20260904143328 | 90 | 229 | 4.0 | 8.0 | 0.00 | 0.00 | 0.00 | 75 | 1018.0 |
| 20260904142324 | 89 | 231 | 5.0 | 9.0 | 0.00 | 0.00 | 0.00 | 75 | 1017.8 |
| 20260904141313 | 89 | 201 | 5.0 | 8.0 | 0.00 | 0.00 | 0.00 | 76 | 1017.8 |
| 20260904140357 | 88 | 244 | 4.0 | 8.0 | 0.00 | 0.00 | 0.00 | 76 | 1017.7 |
| 20260904135325 | 88 | 192 | 3.0 | 9.0 | 0.00 | 0.00 | 0.00 | 78 | 1017.8 |
| 20260904134343 | 87 | 252 | 4.0 | 10.0 | 0.00 | 0.00 | 0.00 | 79 | 1017.7 |
| 20260904133316 | 86 | 171 | 3.0 | 9.0 | 0.00 | 0.00 | 0.00 | 79 | 1017.6 |
| 20260904132335 | 86 | 202 | 5.0 | 8.0 | 0.00 | 0.00 | 0.00 | 82 | 1017.6 |
| 20260904131325 | 85 | 217 | 6.0 | 13.0 | 0.00 | 0.00 | 0.00 | 83 | 1017.7 |
| 20260904130315 | 84 | 202 | 5.0 | 9.0 | 0.00 | 0.00 | 0.00 | 85 | 1017.7 |
| 20260904125315 | 83 | 218 | 5.0 | 9.0 | 0.00 | 0.00 | 0.00 | 87 | 1017.7 |
| 20260904124312 | 83 | 218 | 4.0 | 8.0 | 0.00 | 0.00 | 0.00 | 89 | 1017.7 |
| 20260904123334 | 82 | 245 | 2.0 | 10.0 | 0.00 | 0.00 | 0.00 | 90 | 1017.8 |
| 20260904122328 | 81 | 256 | 4.0 | 7.0 | 0.00 | 0.00 | 0.00 | 91 | 1017.9 |
| 20260904121330 | 81 | 205 | 6.0 | 9.0 | 0.00 | 0.00 | 0.00 | 92 | 1018.0 |
| 20260904120323 | 80 | 229 | 4.0 | 6.0 | 0.00 | 0.00 | 0.00 | 92 | 1017.9 |
| 20260904115325 | 80 | 249 | 3.0 | 7.0 | 0.00 | 0.00 | 0.00 | 93 | 1017.8 |
| 20260904114319 | 80 | 197 | 3.0 | 5.0 | 0.00 | 0.00 | 0.00 | 93 | 1017.8 |
| 20260904113316 | 79 | 244 | 3.0 | 6.0 | 0.00 | 0.00 | 0.00 | 93 | 1017.8 |
| 20260904112317 | 79 | 180 | 2.0 | 4.0 | 0.00 | 0.00 | 0.00 | 93 | 1017.7 |
| 20260904111313 | 79 | 200 | 1.0 | 4.0 | 0.00 | 0.00 | 0.00 | 93 | 1017.7 |
| 20260904110334 | 79 | 180 | 2.0 | 5.0 | 0.00 | 0.00 | 0.00 | 93 | 1017.6 |
| 20260904105330 | 79 | 152 | 2.0 | 4.0 | 0.00 | 0.00 | 0.00 | 93 | 1017.6 |
| 20260904104309 | 79 | 205 | 2.0 | 4.0 | 0.00 | 0.00 | 0.00 | 92 | 1017.5 |
| 20260904103327 | 80 | 218 | 2.0 | 4.0 | 0.00 | 0.00 | 0.00 | 92 | 1017.3 |
| 20260904102330 | 79 | 227 | 2.0 | 4.0 | 0.00 | 0.00 | 0.00 | 92 | 1017.2 |
| 20260904101324 | 80 | 257 | 2.0 | 4.0 | 0.00 | 0.00 | 0.00 | 92 | 1017.1 |